DW8228 Weather Reports


Display with metric or nautical units.
time (UTC)temp
F
wind
direction
speed
MPH
gust
MPH
rain 1hr
in
rain 24hr
in
rain mn
in
humidity
%
barometer
mb
20260503071518 47 241 4.0 12.0 0.00 0.00 0.00 66 1007.1
20260503054514 44 294 4.0 5.0 0.00 0.00 0.00 68 1006.3
20260503053006 45 305 5.0 9.0 0.00 0.00 0.00 68 1006.1
20260503051508 45 298 4.0 8.0 0.00 0.00 0.00 68 1006.0
20260503050005 45 299 4.0 10.0 0.00 0.00 0.00 68 1005.9
20260503044502 45 300 6.0 10.0 0.00 0.00 0.00 66 1005.8
20260503043100 45 9 4.0 11.0 0.00 0.00 0.00 65 1005.5
20260503041600 45 265 8.0 14.0 0.00 0.00 0.00 65 1005.4
20260503034601 44 290 5.0 11.0 0.00 0.00 0.00 65 1005.2
20260503033055 44 278 9.0 12.0 0.00 0.00 0.00 65 1005.2
20260503031552 43 281 9.0 13.0 0.00 0.00 0.00 66 1005.1
20260503030123 43 261 7.0 11.0 0.00 0.00 0.00 67 1004.9
20260503024551 43 266 7.0 11.0 0.00 0.00 0.00 66 1004.8
20260503023049 43 242 6.0 12.0 0.00 0.00 0.00 67 1004.7
20260503021556 42 248 8.0 11.0 0.00 0.00 0.00 67 1004.6
20260503020049 42 250 6.0 10.0 0.00 0.00 0.00 68 1004.5
20260503014602 41 241 4.0 7.0 0.00 0.00 0.00 68 1004.7
20260503013051 41 218 5.0 7.0 0.00 0.00 0.00 68 1004.6
20260503011554 42 258 2.0 4.0 0.00 0.00 0.00 68 1004.3
20260503010058 42 258 4.0 7.0 0.00 0.00 0.00 68 1004.3
20260503004545 42 248 3.0 5.0 0.00 0.00 0.00 68 1004.3
20260503003054 41 134 2.0 5.0 0.00 0.00 0.00 69 1004.2
20260503001542 42 247 2.0 8.0 0.00 0.00 0.00 69 1004.2
20260503000040 42 230 3.0 6.0 0.00 0.00 0.00 69 1004.0
20260502234537 42 194 5.0 7.0 0.00 0.00 0.00 69 1004.3
20260502233035 43 209 5.0 9.0 0.00 0.00 0.00 69 1004.2
20260502231534 43 194 5.0 9.0 0.00 0.00 0.00 69 1004.2
20260502230031 43 202 10.0 13.0 0.00 0.00 0.00 69 1004.5
20260502224530 43 208 9.0 13.0 0.00 0.00 0.00 69 1004.4
20260502223029 44 201 10.0 15.0 0.00 0.00 0.00 69 1004.3
20260502221527 44 196 11.0 16.0 0.00 0.00 0.00 69 1004.5
20260502220026 43 198 9.0 14.0 0.00 0.00 0.00 70 1004.8
20260502214523 44 205 11.0 17.0 0.00 0.00 0.00 70 1004.8
20260502213036 44 192 13.0 17.0 0.00 0.00 0.00 70 1004.9
20260502211519 44 187 14.0 20.0 0.00 0.00 0.00 69 1004.9
20260502210017 45 187 15.0 19.0 0.00 0.00 0.00 68 1005.1
20260502204513 44 186 15.0 21.0 0.00 0.00 0.00 69 1005.2
20260502203010 44 196 11.0 15.0 0.00 0.00 0.00 69 1005.5
20260502201517 44 207 9.0 16.0 0.00 0.00 0.00 69 1005.7
20260502200008 44 188 9.0 12.0 0.00 0.00 0.00 69 1005.8
20260502194507 44 190 6.0 10.0 0.00 0.00 0.00 68 1005.8
20260502193005 45 194 9.0 13.0 0.00 0.00 0.00 68 1006.0
20260502191504 45 168 11.0 14.0 0.00 0.00 0.00 68 1006.0
20260502190006 45 189 9.0 14.0 0.00 0.00 0.00 68 1006.2
20260502184501 45 182 10.0 14.0 0.00 0.00 0.00 67 1006.2
20260502183100 46 198 9.0 14.0 0.00 0.00 0.00 67 1006.4
20260502181616 46 178 10.0 19.0 0.00 0.00 0.00 66 1006.3
20260502163049 48 193 13.0 19.0 0.00 0.00 0.00 63 1007.6
20260502161547 49 198 14.0 19.0 0.00 0.00 0.00 62 1007.7
20260502151547 49 193 11.0 15.0 0.00 0.00 0.00 61 1008.6
20260502123011 49 183 13.0 17.0 0.00 0.00 0.00 60 1009.8
20260502121513 50 190 14.0 20.0 0.00 0.00 0.00 59 1009.8
20260502114509 51 194 15.0 21.0 0.00 0.00 0.00 59 1009.9
20260502113007 50 192 15.0 22.0 0.00 0.00 0.00 59 1009.9
20260502111506 50 197 15.0 18.0 0.00 0.00 0.00 59 1009.9
20260502110005 50 201 14.0 18.0 0.00 0.00 0.00 59 1009.9
20260502104502 49 197 13.0 17.0 0.00 0.00 0.00 61 1010.0
20260502103001 49 201 15.0 19.0 0.00 0.00 0.00 60 1010.1
20260502101600 49 202 14.0 17.0 0.00 0.00 0.00 61 1010.0
20260502100103 48 213 15.0 18.0 0.00 0.00 0.00 63 1010.1
20260502080104 48 213 14.0 20.0 0.00 0.00 0.00 62 1010.4